Theta_e
346 340 334 333 332 332 330 330 331 333 334 336 338 338 338 337 337 336 336 335 333 332 332 333 330 320 310 311 311 313 317 316 317 313 316 329 331 328 327 329 333 335 338 338 338 339 338 338 338 337 337 337 336 336 335 335 335 335 335 335 335 334 334 334 333 333 331 325 321 326 331 336 336 337 337 336 336 336 337 336 337 336 336 337 336
346 339 333 333 332 332 331 330 330 332 334 336 337 338 337 337 337 336 336 335 332 329 331 332 325 313 310 311 311 315 316 316 317 313 319 331 331 328 330 334 336 338 339 339 338 338 338 338 337 337 337 337 336 336 335 335 335 335 335 335 335 335 335 334 334 333 328 322 319 321 326 333 336 336 336 336 336 335 336 336 336 337 336 336 336
346 339 334 333 332 333 332 331 330 331 333 336 337 337 337 336 336 336 335 334 329 326 330 328 318 310 311 311 312 316 317 316 316 315 324 332 329 329 334 336 338 339 339 338 338 337 337 337 337 337 337 337 337 336 334 334 335 334 335 335 335 336 335 334 333 330 325 321 318 320 323 329 334 336 336 336 335 335 334 334 335 335 335 335 335
346 340 334 334 333 333 333 332 329 328 331 334 335 337 336 336 335 334 334 332 326 324 325 320 312 310 312 311 314 318 317 317 314 316 325 330 329 330 335 337 338 339 339 338 338 337 337 337 337 337 337 336 332 328 324 322 322 324 328 330 333 334 333 331 327 323 321 317 319 325 328 328 331 334 335 335 335 333 332 332 334 334 334 334 334
346 341 335 334 333 333 334 332 330 327 327 328 331 333 333 333 332 333 332 328 322 320 318 313 310 311 312 312 316 318 319 318 317 320 325 329 329 331 336 337 338 339 339 339 338 338 337 337 337 336 333 327 320 315 312 311 310 311 313 316 320 323 323 320 316 315 315 317 325 331 331 330 330 332 334 334 333 327 325 328 331 334 334 334 334
347 343 336 334 333 333 333 333 331 328 326 324 324 324 325 326 328 330 328 324 318 314 312 310 311 312 312 312 317 319 320 320 319 323 326 327 328 332 337 337 338 339 339 339 338 338 337 337 337 334 325 317 312 310 309 308 309 309 308 309 310 311 312 311 312 312 314 322 330 331 330 330 326 326 330 329 326 319 318 324 329 332 334 334 334
347 342 336 336 335 333 333 333 333 331 329 326 323 320 320 321 324 325 323 319 314 310 310 310 311 312 312 313 317 320 321 321 320 323 324 324 328 335 337 338 338 339 338 339 338 338 337 337 335 328 319 313 311 310 309 309 309 309 309 309 309 309 309 309 310 311 320 330 332 331 330 330 325 318 321 319 316 314 314 320 327 332 334 334 335
347 342 337 338 336 333 333 334 334 333 332 329 324 320 318 319 319 320 319 316 311 310 310 310 312 313 312 313 317 320 321 321 320 320 322 325 332 337 338 338 339 338 338 338 338 337 335 333 328 320 314 312 311 310 308 309 309 309 309 309 309 308 309 309 310 312 324 331 330 331 330 330 326 314 312 313 311 313 317 321 326 331 333 333 334
347 342 340 341 336 333 334 334 335 334 333 330 324 320 318 317 317 317 317 313 310 310 310 311 312 313 312 313 316 319 320 321 322 320 323 330 335 338 338 339 338 338 338 337 335 334 333 330 325 319 315 313 311 310 309 309 309 309 309 309 309 309 309 308 312 321 327 330 330 331 330 330 326 316 310 311 310 313 320 324 326 329 332 333 333
347 343 344 343 336 334 334 334 335 335 334 329 322 319 317 317 316 316 316 312 310 310 310 311 311 312 312 313 315 317 319 321 322 322 326 333 336 337 338 339 338 337 336 335 333 332 332 331 329 323 316 313 311 310 309 309 309 310 310 310 310 310 310 311 321 329 329 328 328 327 327 329 327 322 314 310 310 311 315 320 324 327 330 331 331
347 343 344 343 336 334 334 334 335 335 334 329 322 318 317 317 315 315 315 312 310 310 310 311 311 312 312 313 314 316 319 320 321 323 325 330 334 334 335 337 337 336 335 333 332 331 331 331 328 321 316 313 310 309 309 310 310 310 310 310 311 311 310 317 329 330 327 327 326 325 326 327 328 325 317 311 310 310 311 314 321 326 328 328 327
346 344 345 342 336 335 334 334 335 335 335 331 323 317 317 316 314 314 314 313 311 310 310 311 311 311 312 312 314 316 318 319 320 322 323 326 331 331 331 334 335 334 333 331 330 329 328 327 324 319 316 311 308 309 309 309 310 310 311 310 311 313 310 320 330 330 329 330 330 329 327 326 325 321 317 313 309 310 310 313 319 323 325 325 325
346 345 345 341 336 336 335 334 335 335 335 332 324 318 317 316 314 313 314 314 312 311 311 310 311 311 312 312 313 315 317 318 318 320 322 323 328 328 328 330 332 332 330 328 328 327 326 323 321 319 315 310 309 309 309 309 310 309 310 310 310 312 311 320 329 329 329 330 330 328 325 325 323 318 316 313 309 310 309 311 316 319 322 322 323
347 346 346 342 337 337 336 335 335 335 336 333 327 320 317 316 314 313 313 314 314 312 311 311 311 311 311 312 313 314 315 316 318 319 320 321 325 326 325 326 327 328 327 327 327 327 323 321 321 320 315 311 310 310 310 310 310 310 310 310 311 311 312 318 324 326 329 330 330 329 326 325 319 315 313 312 309 309 309 309 311 314 317 318 319
347 346 345 342 338 338 337 336 335 335 336 335 330 324 319 317 315 313 313 313 314 314 312 311 311 311 311 312 313 313 313 315 317 317 317 318 322 324 324 323 323 324 324 326 327 326 323 323 322 321 317 312 311 312 312 312 312 313 312 313 313 313 317 323 324 326 330 329 328 327 325 321 313 310 310 309 308 308 309 308 309 311 313 314 315
347 346 345 343 339 338 338 337 336 335 336 336 332 327 322 319 317 315 313 313 313 314 314 313 312 312 312 312 311 312 312 314 316 316 315 316 319 322 323 322 320 321 323 325 326 326 325 324 324 323 320 315 312 313 313 314 315 315 315 314 316 315 317 324 325 326 329 329 327 325 322 317 311 310 309 308 309 308 309 308 308 308 309 311 312
347 347 346 344 340 339 339 337 336 335 336 337 333 329 325 321 319 317 315 314 313 314 314 314 314 314 313 313 312 311 312 312 314 315 315 315 317 320 322 323 321 319 321 323 325 327 327 326 326 325 323 319 315 315 315 315 316 316 316 315 316 317 317 321 323 322 325 326 326 325 322 315 311 311 311 311 311 309 308 308 308 308 308 309 309
348 347 347 345 342 341 341 339 336 336 336 337 334 330 327 322 319 318 316 314 314 314 314 314 314 314 314 314 313 311 311 312 312 314 316 315 315 318 320 323 323 320 319 320 324 327 328 327 328 327 325 323 319 318 317 317 317 317 318 317 317 318 318 319 319 318 321 323 322 320 318 314 311 312 313 313 313 312 310 309 308 308 308 308 309
348 347 346 345 344 343 343 341 338 337 336 337 335 333 329 323 320 317 316 316 318 318 319 319 316 315 314 314 315 312 311 311 312 313 316 316 316 317 320 321 321 321 320 318 322 326 328 328 328 328 327 325 323 321 320 319 319 319 319 320 319 319 320 321 322 322 323 323 319 315 315 314 312 312 312 313 314 315 314 312 310 309 309 309 309
348 346 345 345 345 344 344 342 340 338 337 337 336 335 329 323 320 317 317 319 323 325 326 325 322 319 315 315 314 311 312 310 312 314 316 318 317 317 320 320 320 321 322 319 319 323 327 328 328 328 327 325 324 324 323 322 322 322 322 321 321 321 322 323 325 325 322 320 317 317 317 316 315 313 313 312 313 314 314 313 311 310 309 309 309
347 346 346 345 344 344 344 342 340 339 338 338 337 335 330 325 321 320 322 326 328 329 330 330 328 324 319 317 314 319 323 315 315 317 316 319 318 318 319 320 319 320 324 322 319 321 324 327 327 328 328 325 323 324 325 324 323 323 323 322 322 322 322 323 325 326 324 321 319 318 318 317 316 315 314 313 311 311 311 311 311 310 309 309 309
347 347 345 344 344 345 344 342 341 340 339 339 339 337 333 329 326 325 329 333 334 333 334 333 330 329 324 320 318 327 329 321 324 322 316 319 318 320 321 320 318 318 324 325 323 322 322 325 327 328 328 326 323 322 323 323 322 322 322 322 323 324 322 322 326 328 326 322 320 321 320 319 319 318 316 313 311 310 310 309 309 310 310 309 308
348 347 345 344 345 345 344 344 343 342 341 340 340 340 337 333 332 332 332 335 338 336 337 336 332 332 328 327 327 330 328 325 331 326 320 320 315 318 322 322 319 315 321 325 326 324 323 324 326 328 327 327 325 321 322 322 322 322 322 324 326 325 323 324 327 329 327 321 321 322 321 320 320 320 318 316 313 311 310 309 308 308 308 308 308
348 347 346 345 345 345 344 344 343 341 341 340 340 340 339 338 338 338 337 338 339 338 339 338 336 336 334 335 336 334 332 331 333 328 322 322 316 315 318 322 322 316 316 322 326 325 324 324 325 328 327 328 330 329 328 325 322 323 324 327 328 325 325 328 329 329 327 322 322 322 321 321 321 320 320 319 316 312 310 309 309 307 307 308 308
347 347 347 346 345 345 344 343 341 340 341 340 339 340 340 341 340 340 341 341 340 340 340 340 339 339 338 340 340 336 336 335 335 330 325 323 320 317 314 317 321 318 314 318 325 325 325 327 327 328 328 331 334 333 331 326 323 326 327 328 327 326 328 329 330 330 329 325 322 323 322 322 322 320 320 320 318 316 313 311 310 309 308 307 307
345 346 346 346 346 346 345 343 341 341 341 340 341 341 341 341 341 341 342 342 341 341 341 342 340 340 340 341 340 338 336 336 336 335 332 328 325 323 320 316 316 318 315 314 322 325 327 329 329 329 331 333 333 330 327 325 328 329 328 328 327 328 330 329 329 331 331 328 323 324 324 323 323 321 321 320 319 319 317 315 312 310 310 308 306
345 346 346 346 346 346 345 344 342 341 340 340 340 340 340 341 341 341 342 342 341 341 341 342 341 340 340 339 339 339 338 337 337 336 336 334 330 328 327 321 315 315 314 312 318 324 329 332 331 332 334 334 333 329 324 324 330 331 329 329 328 328 330 329 330 331 331 330 325 323 324 323 323 321 321 321 321 320 320 320 317 314 313 310 307
345 345 346 345 345 345 344 343 341 340 340 340 340 340 341 341 341 341 341 342 341 341 341 340 341 340 338 337 338 339 339 338 338 337 336 335 333 332 330 327 322 318 314 311 315 321 328 332 331 333 333 333 333 330 327 326 329 331 330 329 329 329 329 329 331 331 331 331 327 324 324 324 323 322 321 321 323 324 324 324 320 316 314 310 308
344 345 345 343 344 344 343 342 341 340 339 340 340 341 342 341 340 341 341 341 340 340 340 339 340 339 338 337 337 338 339 339 339 338 337 334 334 333 332 331 329 326 319 311 313 317 325 330 330 332 333 334 333 331 329 326 328 331 331 330 330 330 328 328 330 331 331 331 329 324 324 324 323 323 322 322 325 326 326 324 320 318 316 313 311
343 344 343 342 343 343 342 342 341 341 340 340 341 342 341 340 339 340 340 340 340 340 339 339 338 339 339 338 337 337 337 338 338 338 336 334 333 334 333 332 331 328 322 316 313 312 322 328 328 331 332 333 333 331 329 326 329 332 332 331 330 330 329 328 330 331 331 331 330 326 324 325 323 323 323 324 327 326 324 323 322 321 320 318 314
343 343 343 342 342 342 342 342 341 340 340 341 341 340 340 339 339 340 339 338 338 337 337 337 336 337 337 336 337 336 334 336 337 336 335 333 333 333 332 332 332 330 325 321 316 310 318 324 324 329 332 333 334 331 329 329 330 332 332 331 329 330 330 329 330 330 330 331 331 328 325 324 323 324 323 323 324 323 324 324 323 322 321 320 316
343 343 343 342 342 341 341 341 341 339 339 340 339 338 339 339 338 339 338 337 336 335 335 335 335 336 336 335 335 335 334 335 335 334 333 332 332 332 331 331 332 331 329 326 321 314 316 320 319 326 332 332 332 332 331 331 332 332 332 332 331 331 330 329 330 330 330 330 330 330 328 326 324 323 323 323 322 322 325 325 323 323 321 320 316
343 342 343 342 341 341 340 340 340 338 338 338 337 337 338 338 337 337 336 337 337 335 334 334 335 335 335 335 334 335 335 334 334 334 332 332 332 332 331 331 331 332 332 330 327 321 318 317 315 323 331 331 332 332 331 331 332 332 332 332 332 331 330 329 330 329 329 329 329 330 330 329 326 325 324 323 321 320 323 324 321 322 322 319 316
343 342 342 342 341 341 340 340 339 338 337 337 337 338 338 337 337 337 336 337 336 334 334 334 333 333 334 335 334 334 335 334 334 333 332 332 332 332 331 331 331 331 332 330 330 327 323 317 316 323 329 331 333 332 331 332 333 333 332 332 332 330 330 331 330 329 330 330 329 329 331 330 329 328 327 326 324 319 318 319 317 319 320 317 318
342 342 341 341 341 341 340 339 338 338 337 337 337 337 337 336 336 336 336 335 334 332 332 332 331 330 332 334 335 334 334 334 334 333 332 333 332 332 330 330 331 331 331 329 329 330 328 323 321 325 329 331 334 333 332 332 333 333 332 331 332 330 330 331 330 330 330 330 328 329 331 331 330 330 329 328 329 322 314 312 313 315 317 317 320
342 342 341 340 341 341 339 338 337 337 337 337 337 336 337 337 335 335 336 334 331 330 330 329 329 330 331 332 333 333 333 334 334 333 332 332 332 331 330 330 331 330 330 328 329 330 330 328 326 326 330 333 334 334 333 332 333 334 332 331 332 330 331 331 331 330 330 330 329 329 330 331 330 329 328 329 330 325 314 310 310 311 313 317 319
342 341 340 340 341 340 339 338 337 337 338 338 337 335 335 336 334 334 336 335 331 330 329 329 329 330 331 331 331 332 332 333 334 332 331 332 331 331 330 331 331 330 330 329 329 331 331 330 329 327 329 333 333 334 334 332 332 333 331 332 331 331 332 332 331 331 331 331 330 330 330 330 328 328 328 328 330 326 316 312 314 313 313 313 314
342 341 340 340 340 340 338 337 337 337 338 338 337 335 334 334 333 333 334 333 331 329 329 329 330 329 330 330 330 331 332 332 332 331 331 332 332 332 331 331 331 331 331 330 330 332 332 331 331 329 330 333 332 334 334 330 330 331 331 332 331 331 333 332 331 330 331 332 331 331 330 329 328 329 329 328 329 326 320 318 320 321 320 319 317
342 341 340 340 340 340 338 337 337 337 337 337 336 335 334 334 334 334 333 332 331 330 329 330 330 329 330 330 329 330 330 330 331 331 331 332 332 332 332 331 331 332 333 331 330 333 334 332 331 332 332 332 332 334 334 331 330 331 332 333 331 331 333 332 331 331 332 332 331 330 330 329 329 330 329 328 329 328 325 324 325 325 324 324 324
342 341 341 340 340 340 339 339 338 337 337 336 336 336 336 336 336 335 334 334 333 331 330 331 330 330 330 330 329 329 329 330 330 331 331 332 333 332 331 331 332 332 332 330 330 333 335 333 332 333 333 332 332 333 334 332 331 332 333 333 332 332 333 332 331 331 331 331 331 330 330 330 330 330 329 329 329 329 327 327 327 327 325 325 326
343 342 341 341 340 339 338 338 337 336 336 335 335 336 336 336 336 335 335 335 333 332 331 331 331 331 330 329 329 330 330 330 330 331 331 332 333 332 331 332 331 330 331 330 330 332 334 332 330 330 332 331 332 333 333 333 332 333 333 333 331 331 332 331 331 331 331 331 331 330 330 330 330 330 329 328 329 329 328 328 328 327 326 326 326
343 343 342 341 340 339 339 339 337 336 336 335 335 335 335 335 335 335 334 334 334 333 332 332 331 331 331 329 330 331 330 330 330 331 332 332 331 331 332 333 332 330 331 331 330 330 331 330 328 328 330 331 332 332 332 331 331 331 332 331 331 331 331 331 330 331 331 331 331 330 330 329 329 330 329 328 329 329 328 328 327 326 325 326 327
343 343 342 341 340 339 339 338 337 336 334 334 333 334 335 335 335 334 334 334 334 333 332 332 332 332 331 330 330 330 329 329 330 331 332 332 330 331 332 332 332 331 331 331 330 329 329 329 327 327 329 331 333 332 331 331 331 330 330 330 330 331 330 330 330 330 330 330 330 330 329 329 329 329 329 329 329 328 327 327 327 326 325 325 328
342 342 341 341 340 339 338 337 336 335 333 333 334 334 334 335 334 333 334 334 334 334 333 333 333 332 330 329 330 329 329 328 328 330 331 332 331 331 331 331 332 331 330 330 330 329 329 329 328 328 329 330 332 331 330 331 330 330 330 329 329 330 329 329 330 329 328 329 329 329 329 329 329 330 329 329 328 327 327 326 326 326 325 325 326
340 340 340 339 339 338 337 336 336 335 333 333 336 336 334 335 335 333 333 333 334 334 334 333 333 332 328 327 328 328 328 327 327 327 328 331 332 331 331 330 331 331 330 329 330 329 329 329 329 329 329 330 331 330 330 330 330 331 329 328 329 329 329 329 330 329 329 329 329 329 329 329 329 329 329 328 327 326 326 326 326 326 326 326 325
339 338 338 337 337 337 336 336 335 335 334 333 334 334 333 334 334 334 334 334 334 334 333 333 333 331 328 328 329 327 327 327 327 326 327 331 331 331 331 329 329 330 330 330 330 330 329 329 330 329 328 329 330 330 331 331 330 330 327 328 329 328 329 330 329 329 329 329 329 328 328 329 329 328 328 328 327 327 327 327 326 326 325 326 326
338 337 336 336 336 336 336 335 335 335 334 334 333 332 332 334 334 334 334 334 335 334 334 333 333 332 330 331 331 330 329 328 328 327 329 331 331 331 331 330 329 330 330 330 331 331 330 329 330 329 328 329 331 331 332 331 329 330 329 329 330 328 329 330 329 329 329 329 329 327 327 328 328 327 327 327 328 328 327 326 326 326 325 325 325
336 335 335 335 335 335 335 335 335 335 334 334 333 332 332 333 333 334 334 334 335 335 335 334 334 333 332 331 331 331 331 331 329 329 329 331 331 331 331 331 331 331 331 331 331 330 328 328 328 328 328 330 332 332 332 331 330 331 331 331 330 329 329 330 329 329 330 329 329 328 327 327 327 327 327 328 328 327 326 325 325 326 326 325 326
334 334 334 334 334 335 334 334 334 335 334 333 332 331 331 331 332 334 334 334 334 334 335 335 334 333 332 330 329 330 332 332 331 331 330 331 332 332 332 332 331 331 332 331 331 330 328 327 327 327 330 332 331 331 331 331 330 330 331 331 330 330 329 330 329 330 330 329 329 329 328 328 328 327 327 328 328 326 326 326 325 326 326 325 325
333 333 333 333 333 334 334 334 334 335 335 334 333 332 332 332 333 333 334 334 334 333 334 333 333 332 331 330 329 330 332 333 333 332 332 332 332 332 332 331 331 331 332 331 331 330 329 328 327 327 330 331 331 331 330 332 331 331 331 331 330 330 329 329 330 330 330 329 329 329 329 328 328 328 328 328 327 326 326 326 326 326 326 325 325
333 332 333 333 333 333 333 333 334 334 334 334 334 333 333 333 334 333 333 334 333 333 333 333 333 333 332 332 332 331 331 332 333 333 333 332 332 332 332 331 332 331 331 331 331 331 329 329 327 327 329 330 331 331 329 331 332 329 330 330 329 328 329 329 329 329 329 329 329 329 328 328 328 328 328 327 327 327 326 326 326 325 325 325 324
Wind_Speed
17 21 22 21 20 18 17 16 15 15 14 14 14 14 13 13 12 11 10 9 7 6 5 5 4 6 8 7 8 10 10 11 14 18 20 22 22 21 21 20 20 17 16 15 15 16 16 16 16 15 15 15 14 14 13 13 13 13 13 13 13 13 12 13 13 13 13 11 10 11 12 13 16 18 18 18 18 18 18 17 17 17 18 18 17
18 20 23 21 20 18 17 16 15 15 14 14 14 14 13 13 12 11 10 8 6 5 5 5 5 8 9 8 9 10 10 12 15 18 21 22 23 22 21 19 18 17 16 16 16 16 16 16 16 15 15 15 15 14 13 13 13 13 13 13 12 12 12 12 12 11 11 11 9 9 10 12 15 17 17 17 18 18 17 17 17 17 17 17 18
18 20 23 21 20 18 16 16 15 15 14 14 14 13 13 12 12 10 9 8 6 5 5 6 8 9 9 9 10 10 11 14 16 19 22 22 22 22 21 19 18 17 17 17 17 16 16 16 16 15 15 15 14 14 13 12 11 11 12 12 11 11 11 10 9 9 10 10 9 9 8 9 12 15 16 17 17 17 16 16 17 17 17 17 18
18 20 24 22 20 18 16 15 15 14 14 14 13 13 13 12 11 10 9 8 6 6 7 8 10 10 9 10 10 11 12 14 16 20 22 22 22 22 20 18 17 17 17 17 16 16 16 16 15 15 14 13 13 13 12 11 10 10 10 9 9 9 8 7 7 8 9 9 11 11 9 8 10 12 14 16 15 14 14 15 16 16 17 16 17
18 20 24 22 20 18 17 16 15 14 13 13 13 13 12 12 11 11 10 8 6 7 9 11 12 10 10 10 11 12 13 14 17 21 22 21 21 21 19 18 17 17 17 16 16 15 15 15 14 13 13 13 12 12 12 12 11 10 10 9 8 7 7 7 8 9 9 11 14 12 10 9 8 10 10 11 11 10 11 11 13 15 16 16 16
17 19 23 22 21 19 17 16 15 14 13 12 12 12 12 12 12 11 10 8 8 9 11 13 12 11 11 11 12 13 13 14 18 22 20 21 22 21 18 17 17 17 16 16 15 15 14 13 13 13 13 13 12 13 13 14 13 13 13 12 11 10 9 9 10 11 12 14 14 11 10 10 7 8 8 8 7 8 8 9 11 13 14 15 15
16 20 23 21 21 20 18 16 14 13 12 12 12 12 12 12 12 11 10 9 10 11 13 13 12 11 11 12 12 13 13 14 18 20 19 21 23 20 17 17 17 16 15 15 14 14 12 12 12 13 13 13 12 13 15 15 15 15 15 15 15 14 13 13 11 12 15 13 11 10 10 10 7 7 8 7 7 7 7 8 10 12 13 13 13
16 20 22 19 20 20 17 16 14 12 11 11 11 11 11 11 12 11 11 11 11 13 14 13 12 12 12 12 13 13 13 14 16 19 21 22 21 18 17 17 17 16 15 14 14 13 12 12 13 14 13 13 13 14 15 16 16 16 16 17 17 16 15 14 13 13 15 12 10 11 11 10 8 7 8 8 7 9 9 8 9 11 12 13 13
16 19 19 16 19 20 17 15 14 12 11 10 10 11 11 11 11 12 11 11 12 14 14 13 12 12 12 12 13 13 13 14 16 20 22 21 19 18 17 17 17 17 15 14 14 13 13 13 13 13 13 13 13 15 16 16 17 17 17 17 17 17 16 16 17 16 13 12 12 12 11 10 8 7 7 8 8 10 11 9 7 9 11 11 12
16 19 17 15 19 19 17 15 13 12 11 10 10 10 11 11 12 12 12 12 13 14 14 13 13 12 12 12 12 12 13 14 15 18 20 20 20 19 18 18 17 17 16 15 13 12 12 12 12 12 12 13 14 16 17 17 18 18 19 19 19 18 17 19 20 15 12 12 12 12 13 12 10 9 8 8 8 8 10 8 7 9 10 10 10
17 19 16 15 19 18 16 15 13 12 10 10 10 10 11 12 12 12 12 12 13 14 14 13 13 13 13 13 12 12 13 14 14 15 16 18 19 19 18 19 18 17 16 14 13 12 11 11 11 11 12 14 15 17 18 19 19 20 21 22 23 21 21 22 18 13 14 14 14 14 14 13 11 10 9 9 9 8 8 8 9 10 10 9 8
16 18 15 17 19 17 16 14 13 11 10 9 9 10 11 12 13 13 13 12 13 13 13 13 13 13 14 14 14 14 14 13 14 13 13 14 17 17 17 18 18 17 15 13 13 12 12 11 12 12 13 15 17 18 19 21 21 22 22 23 24 23 24 24 16 13 15 14 15 13 12 12 11 12 11 11 10 9 9 9 10 10 9 8 8
16 17 14 16 18 17 15 14 12 11 10 10 10 11 11 12 12 12 12 12 12 13 13 13 13 13 14 14 15 15 13 13 14 13 13 13 15 15 15 16 16 15 14 13 13 12 12 13 12 13 14 16 18 19 20 21 22 22 22 23 23 22 25 23 17 15 15 14 14 12 11 12 12 14 13 12 11 10 10 10 10 10 10 9 8
16 16 15 16 18 17 15 14 12 11 11 10 10 11 11 11 11 12 12 12 12 12 12 13 13 13 14 14 13 13 13 13 14 14 13 13 14 15 14 14 14 14 14 13 13 13 14 14 13 14 15 17 18 20 21 21 22 22 22 23 22 22 24 22 19 18 16 16 15 12 11 12 14 16 14 13 12 11 10 10 9 9 9 9 8
17 17 16 16 18 17 15 13 12 12 11 10 10 10 10 11 10 11 11 11 11 11 12 12 13 13 13 13 12 12 12 13 14 14 13 13 14 15 14 13 12 13 13 13 13 14 15 14 14 15 16 17 19 20 21 22 22 22 22 22 21 22 22 19 19 18 16 15 14 12 11 13 16 16 15 14 12 11 10 10 10 10 9 9 8
17 17 16 16 18 17 16 14 13 12 11 11 10 10 10 10 10 10 10 10 10 11 11 11 12 11 10 11 11 11 11 12 13 14 12 12 13 14 14 13 11 11 13 13 13 15 15 15 15 15 16 17 19 19 20 21 21 21 22 22 20 21 22 19 18 18 15 14 13 12 11 14 16 15 15 14 12 11 10 10 10 10 10 9 8
17 16 16 16 17 17 16 15 14 13 12 11 10 10 9 9 10 10 10 10 10 10 10 10 9 9 10 10 11 12 11 11 13 14 13 12 12 14 14 14 12 10 12 13 13 16 16 15 15 15 16 17 18 19 20 20 20 20 20 21 20 19 21 20 17 17 15 14 13 11 11 13 15 14 13 13 12 12 11 11 10 9 9 9 9
17 16 16 16 16 16 15 15 15 14 14 13 11 10 9 9 9 10 10 9 9 9 8 8 8 8 10 10 10 12 12 12 13 14 14 13 13 13 14 14 13 11 10 12 14 15 16 14 14 14 15 17 18 18 19 18 19 19 18 19 18 17 19 19 16 16 16 14 13 12 12 14 14 13 12 12 12 12 11 10 10 10 10 10 9
17 17 16 16 16 16 16 15 15 15 14 14 13 11 10 9 9 10 10 9 9 8 8 8 8 9 10 10 11 13 14 14 14 15 15 15 14 14 14 14 13 13 11 11 13 15 15 13 13 13 14 15 17 17 17 17 17 17 17 17 16 16 18 16 15 15 15 13 12 12 13 13 14 12 11 10 10 10 9 9 9 9 9 8 8
17 17 16 16 17 17 17 16 15 15 14 14 14 13 12 11 10 10 10 10 9 8 8 8 9 9 10 11 12 15 15 15 15 15 16 16 15 14 15 14 13 13 12 11 12 14 15 13 12 12 13 14 15 16 16 16 16 15 16 15 15 16 16 14 13 14 13 13 12 12 12 12 12 11 9 9 8 8 8 7 8 8 7 6 7
15 17 17 17 18 17 17 17 16 16 15 14 14 14 13 13 12 12 11 10 9 9 9 9 10 10 11 11 13 13 13 15 15 15 17 17 16 15 16 15 13 13 13 12 12 13 13 12 11 11 11 11 13 14 15 15 14 14 14 13 14 15 14 14 14 13 12 12 12 11 12 12 11 10 9 8 7 6 6 6 6 7 6 5 6
14 16 18 18 18 17 17 17 16 16 15 15 14 15 15 15 14 13 13 11 10 10 10 10 10 11 11 12 12 11 10 12 12 12 14 16 17 16 17 17 14 14 15 13 12 12 12 11 10 10 9 9 10 12 12 13 13 13 12 12 13 14 13 15 14 11 10 10 10 10 11 11 10 9 8 7 6 6 5 5 5 4 5 5 5
14 15 16 17 17 17 17 16 16 16 15 15 15 15 15 15 14 13 13 12 12 11 11 11 10 11 11 11 10 9 9 10 11 11 13 15 16 17 18 18 17 16 16 15 13 12 11 11 10 9 9 8 8 9 10 10 11 11 10 11 13 12 13 14 12 10 8 8 9 9 10 9 8 8 7 7 6 5 4 4 4 3 2 3 4
14 15 15 16 17 16 16 16 16 16 16 15 16 15 15 14 13 13 12 13 13 12 12 11 10 11 11 11 10 10 11 11 12 13 13 15 16 16 17 18 18 17 16 16 15 13 11 11 10 10 9 8 7 7 7 8 10 10 10 11 11 11 12 12 10 9 7 7 8 8 8 8 7 7 6 6 6 5 4 4 4 4 2 1 2
14 14 14 15 16 15 15 15 15 15 16 15 15 15 15 14 14 14 13 14 14 13 13 12 12 13 12 12 11 11 11 13 13 13 13 14 14 14 14 16 18 18 18 18 17 14 12 10 11 10 9 9 8 8 7 7 9 9 10 10 10 11 11 9 9 8 6 6 8 8 7 7 6 5 5 5 4 4 2 2 3 3 2 1 1
14 14 14 14 15 14 14 14 15 16 16 16 15 15 15 15 15 15 14 14 14 14 13 13 13 14 14 14 13 12 12 13 13 13 13 13 12 12 12 15 18 20 21 20 19 17 13 11 11 11 10 10 10 9 8 8 8 9 9 9 10 11 9 8 8 8 6 6 7 7 6 6 5 5 4 4 4 4 3 2 2 2 2 2 1
12 14 13 14 15 14 13 13 15 16 16 15 14 15 15 15 14 14 14 14 14 14 14 13 14 16 16 16 15 13 13 14 13 14 14 13 13 12 12 13 16 19 21 21 21 19 15 12 13 12 11 11 11 10 8 8 9 8 8 9 9 10 8 7 7 8 6 5 6 5 5 5 4 4 4 5 5 4 4 3 2 2 3 3 2
11 12 12 14 15 14 14 13 13 14 14 13 13 13 14 14 13 13 13 12 13 14 15 14 15 17 17 17 16 14 13 13 13 15 15 15 14 13 13 13 14 17 21 22 22 21 17 13 13 13 12 11 11 11 9 8 9 9 8 9 9 8 8 7 7 8 6 4 5 5 4 3 3 3 4 5 4 4 4 3 3 3 3 3 2
10 11 11 12 14 14 13 13 12 12 13 14 13 12 13 14 14 13 12 12 13 14 15 15 15 16 16 17 16 16 16 14 13 14 15 15 14 13 13 12 13 15 18 22 23 23 19 15 13 13 13 12 12 11 11 9 9 8 7 8 8 7 7 6 7 7 6 5 4 3 2 1 2 3 3 4 3 3 3 3 4 3 3 3 2
10 11 10 10 12 13 13 12 12 12 13 14 14 13 14 15 14 13 13 13 14 14 14 15 16 15 15 16 17 19 19 16 15 14 15 16 15 13 12 12 14 14 15 19 24 25 21 16 14 13 14 13 12 12 11 9 8 7 7 7 7 7 7 6 6 7 6 5 3 3 2 0 2 3 3 3 2 2 3 4 3 3 3 3 3
9 10 9 8 10 12 13 12 12 12 12 13 14 15 15 15 14 13 13 14 15 15 14 14 16 16 16 17 19 19 18 17 16 15 15 15 14 13 13 13 13 13 14 17 22 25 22 19 17 14 14 13 12 12 11 9 8 7 7 7 7 7 7 7 7 6 6 5 3 2 1 0 1 3 3 3 2 3 3 3 3 3 3 2 3
8 9 9 8 8 10 12 12 12 13 13 12 14 15 15 15 14 14 14 14 15 15 13 14 15 15 17 18 19 17 14 15 15 15 15 15 14 13 13 13 12 12 13 15 18 23 22 21 20 16 14 14 13 13 11 10 9 7 7 7 6 7 6 6 6 6 6 6 4 2 1 0 2 2 3 3 3 3 2 2 3 3 3 2 2
7 8 9 8 7 8 10 11 12 13 13 13 14 15 15 14 13 14 15 13 13 13 12 14 14 15 16 18 18 16 14 14 14 15 14 14 14 13 13 13 13 13 13 13 15 18 21 22 21 17 14 14 13 13 11 10 10 9 8 7 6 6 6 6 6 6 6 5 5 4 3 1 2 2 3 5 5 4 2 1 2 2 1 2 3
7 7 8 8 8 9 10 10 11 12 13 14 13 14 15 14 13 14 14 12 12 12 11 12 13 14 15 16 17 16 14 13 14 15 14 14 13 13 13 14 14 14 13 13 14 15 18 20 20 18 16 14 13 13 12 11 10 9 9 7 6 6 5 5 6 6 5 4 4 5 4 2 1 1 3 5 6 6 4 2 1 0 0 1 2
6 5 6 8 9 9 10 10 11 11 11 13 13 13 14 14 13 13 13 12 12 12 12 13 13 15 16 16 16 15 13 13 14 15 14 14 13 13 13 14 16 15 14 14 14 15 16 18 19 18 17 15 13 13 13 12 10 9 9 7 6 6 5 4 5 5 4 4 4 5 4 3 3 2 0 2 3 6 6 3 2 1 2 2 3
5 4 4 6 6 6 6 7 9 10 10 12 12 13 14 14 14 13 12 11 11 12 13 15 15 16 17 17 16 16 15 13 15 15 14 14 14 13 12 13 16 15 14 15 16 16 17 17 18 19 18 14 13 12 12 12 10 10 10 8 7 6 5 5 5 4 3 3 4 5 4 4 4 3 2 1 0 4 6 4 5 5 5 6 5
5 4 3 4 4 4 4 3 6 8 9 10 10 13 14 13 13 13 12 11 11 12 14 14 15 15 15 15 16 17 15 13 13 14 13 14 14 12 11 12 14 15 15 16 17 17 17 18 19 20 17 14 13 13 13 14 12 11 11 9 8 7 6 5 5 5 4 4 4 4 4 4 4 2 2 3 2 1 5 6 8 9 10 10 9
4 4 3 3 3 3 3 2 3 6 8 8 9 11 11 11 11 11 13 12 13 14 14 14 15 15 15 15 15 15 14 12 11 11 12 13 13 13 12 11 13 16 16 16 17 16 16 18 19 19 16 14 15 13 15 17 15 13 12 10 9 8 7 6 7 6 5 5 5 5 5 5 4 3 3 4 3 2 4 7 9 9 9 9 10
4 4 4 3 3 3 3 3 3 3 6 8 8 9 10 10 9 10 12 13 15 15 15 15 15 15 15 15 14 12 13 13 12 11 12 13 14 14 13 12 14 16 17 17 17 16 15 17 18 17 16 16 16 14 16 18 16 14 13 11 10 9 7 8 7 6 6 6 6 6 5 5 5 5 4 4 4 4 5 5 5 5 5 5 7
4 4 4 3 3 3 3 3 3 2 4 6 6 7 9 9 9 10 12 13 15 15 14 14 15 15 15 15 14 12 13 14 13 13 13 13 14 14 13 15 15 16 17 18 17 16 15 17 17 18 19 18 17 16 15 16 16 14 13 12 11 10 9 8 7 7 7 7 6 6 6 5 6 6 5 5 5 5 5 5 4 4 3 3 3
4 2 3 3 3 3 3 3 4 3 3 5 5 7 8 8 9 10 11 13 14 14 14 13 14 14 14 13 14 13 13 13 14 14 13 14 13 13 14 16 16 15 17 18 18 16 15 16 17 19 20 20 20 19 18 18 17 15 13 12 11 11 10 9 8 8 7 7 7 7 7 8 7 6 6 6 6 6 6 5 5 4 2 3 2
4 3 3 3 4 5 4 4 6 5 4 4 5 7 6 7 8 9 10 11 11 12 13 13 12 13 12 12 13 13 13 13 15 14 14 15 14 15 15 16 16 16 16 17 17 17 17 17 17 18 19 19 18 20 21 20 17 16 14 12 10 10 10 10 10 9 9 8 9 9 8 9 9 8 7 6 6 7 7 6 6 4 2 3 2
6 5 5 5 5 5 5 4 6 6 4 4 5 6 7 8 8 8 8 7 8 10 11 11 11 11 11 11 12 13 13 13 14 14 15 16 17 16 16 16 17 17 16 16 17 18 18 17 15 17 20 19 17 19 22 19 15 15 15 13 11 10 10 12 12 11 11 10 10 10 9 10 10 9 7 6 6 7 7 7 6 5 4 4 2
8 8 7 7 6 6 6 6 5 4 3 4 4 5 6 7 7 7 8 7 7 8 10 11 11 10 10 11 11 12 13 13 14 14 15 17 17 16 15 16 17 17 16 17 17 19 20 17 16 18 21 21 17 18 21 18 14 14 15 12 11 12 11 11 13 12 11 11 10 10 10 11 11 9 8 8 7 7 7 7 6 6 5 4 2
6 6 6 6 5 6 6 6 6 4 4 4 6 8 7 6 6 7 8 8 8 9 11 11 11 10 10 10 11 12 14 14 14 14 16 16 16 15 15 16 17 18 18 18 19 20 20 19 19 20 21 21 19 17 17 16 15 16 16 12 9 10 11 11 12 10 9 10 9 9 10 10 10 11 11 10 7 6 6 6 6 6 5 3 2
4 4 5 4 5 5 5 7 6 5 5 5 7 9 8 8 7 7 8 9 9 10 11 11 10 10 9 9 11 13 14 14 14 14 16 16 15 14 15 17 17 19 20 20 20 21 21 20 20 20 20 19 18 16 15 16 17 16 15 12 8 7 8 9 9 8 8 9 9 10 10 9 10 12 12 9 7 6 5 5 5 5 4 2 2
5 3 3 3 4 6 6 8 7 5 5 5 6 6 5 7 8 8 9 9 9 10 11 11 11 11 11 11 11 12 13 15 15 15 16 16 15 15 17 17 19 21 22 22 22 22 21 20 20 20 18 17 17 16 16 17 17 15 15 15 11 8 6 7 7 7 8 9 9 10 10 9 9 10 8 6 6 6 6 5 5 4 3 3 2
5 3 3 2 3 4 4 5 5 4 5 5 5 4 4 6 7 9 10 10 10 10 10 11 12 13 13 13 11 11 12 15 16 16 16 17 16 17 19 19 20 22 23 23 23 21 20 20 20 19 18 18 18 16 15 16 17 16 16 16 14 11 9 7 7 6 6 9 10 10 10 9 7 8 8 7 7 7 5 5 5 4 4 4 4
4 4 4 4 4 3 2 3 3 4 5 6 6 5 5 6 7 8 9 10 10 10 11 11 12 13 13 12 11 10 11 13 15 16 17 17 16 17 19 21 21 21 21 23 22 20 19 20 20 19 17 17 17 17 15 16 16 15 16 16 12 11 9 8 7 6 6 8 11 12 11 10 8 8 8 9 9 7 5 5 6 5 5 5 5
3 3 3 4 4 2 2 2 2 3 5 6 7 6 5 6 7 8 9 9 9 10 11 12 13 14 13 12 11 10 11 12 14 15 16 17 16 17 19 21 21 20 20 21 20 19 19 19 19 18 19 18 17 18 18 16 15 15 16 14 11 11 10 8 7 6 6 6 7 10 11 11 10 8 8 8 8 6 6 5 5 5 5 4 5
2 2 3 3 3 3 4 4 4 3 4 5 6 6 6 7 8 8 9 10 10 10 11 12 13 14 13 12 11 10 11 12 13 14 16 16 16 18 20 21 20 19 20 20 19 19 20 20 20 19 19 19 18 19 20 18 16 16 16 12 12 13 12 10 9 8 8 6 6 9 10 10 10 9 8 8 7 6 6 5 4 5 3 3 4
Wind_Direction
156 172 173 166 166 167 167 169 172 174 173 171 169 167 167 166 165 164 164 161 157 158 156 149 126 109 105 91 79 79 87 106 119 128 134 131 129 127 125 124 121 120 116 115 114 113 114 114 112 111 111 109 108 107 106 107 107 106 106 106 105 106 106 107 106 101 94 89 93 103 100 89 86 87 87 87 85 82 81 79 76 75 75 75 76
155 172 173 166 165 166 166 168 171 173 173 171 170 169 169 168 168 168 170 167 162 167 165 155 130 117 109 94 85 84 94 114 125 132 135 132 131 130 128 125 120 117 115 114 115 114 113 113 111 111 110 108 108 106 106 107 106 107 107 106 107 107 107 107 103 94 86 85 89 103 108 94 86 88 90 88 85 83 81 79 76 75 75 75 75
154 168 173 168 165 166 165 167 171 172 172 171 171 171 171 170 172 174 176 173 172 174 166 153 132 122 113 98 90 93 106 121 130 132 135 134 133 132 128 122 118 116 115 115 115 116 115 114 112 111 109 108 107 106 106 105 106 108 107 107 107 107 108 104 95 87 81 87 98 99 106 106 95 92 92 91 88 86 82 79 77 76 76 75 76
153 165 173 169 164 167 165 167 171 170 171 171 172 173 174 174 177 180 180 179 179 172 161 147 133 126 115 101 96 105 117 126 130 132 136 136 134 133 127 120 118 116 116 116 116 116 115 114 112 111 110 108 106 104 102 100 102 104 106 108 109 110 106 96 84 83 83 87 94 88 88 102 105 101 98 96 90 83 78 79 79 76 75 73 75
152 163 172 167 164 166 165 168 168 168 169 170 174 175 178 179 182 183 182 182 177 165 156 144 135 129 116 104 106 116 124 126 127 131 137 137 135 133 125 120 119 118 118 116 115 115 114 114 112 112 110 106 105 101 97 95 95 95 100 103 107 109 101 91 82 84 92 91 88 85 85 88 104 112 106 99 87 75 74 77 80 79 75 73 74
154 161 168 167 165 166 166 168 166 166 167 169 175 177 181 182 184 183 183 179 170 160 151 143 138 131 118 112 118 125 125 123 126 134 140 137 136 131 123 122 121 120 119 118 117 117 116 115 112 110 107 106 103 98 96 94 93 92 93 95 97 97 95 92 88 89 90 86 85 87 87 82 100 123 114 99 83 71 78 84 86 85 80 75 73
158 160 166 166 166 166 165 166 164 164 165 169 172 176 179 180 182 181 179 172 164 156 149 144 142 134 123 120 125 128 126 123 128 136 139 135 132 127 124 126 124 123 122 121 120 119 118 116 112 110 108 106 100 96 97 95 95 93 91 93 93 93 95 93 93 96 90 82 87 91 89 85 93 122 119 102 89 78 83 96 97 93 87 83 78
159 158 163 165 167 165 164 165 163 164 164 167 170 174 176 177 179 176 174 167 159 154 150 149 146 137 127 126 130 132 129 127 130 136 135 132 131 128 129 129 127 127 126 128 126 123 118 113 110 109 109 105 100 99 98 98 97 95 94 92 92 92 92 94 94 90 88 88 93 90 89 88 88 113 119 111 104 92 85 88 98 98 93 91 84
157 155 159 163 167 164 163 166 163 164 162 164 167 171 174 174 175 173 171 162 156 154 154 154 148 139 132 132 134 135 132 132 135 139 137 134 134 133 134 133 133 134 134 135 130 121 115 111 109 107 105 103 102 102 99 98 98 96 94 91 91 91 89 92 90 83 83 91 94 93 93 91 89 101 116 123 118 107 102 98 104 108 100 96 94
157 155 157 160 166 164 163 166 165 163 160 161 164 169 172 172 173 173 168 160 158 158 160 157 150 143 139 138 138 138 137 139 142 143 142 139 140 141 139 139 141 141 142 138 128 119 113 112 109 104 100 101 102 102 100 99 97 95 92 90 89 89 90 86 81 80 88 94 97 105 108 101 94 99 116 126 125 120 119 118 123 122 113 108 107
162 158 161 166 166 163 163 166 166 163 159 158 161 166 168 170 173 172 168 163 161 163 164 159 152 147 146 144 143 146 145 146 145 146 146 144 146 146 147 148 149 149 146 139 130 121 114 113 110 104 98 100 103 102 101 99 96 94 90 89 88 87 89 85 81 84 87 86 82 87 98 99 97 102 116 124 130 134 130 126 128 132 128 122 117
165 159 168 173 164 161 164 166 166 164 159 156 157 162 165 170 172 171 170 166 164 165 165 160 154 152 153 152 151 154 152 149 145 146 149 148 149 148 150 152 154 152 146 141 132 122 117 117 112 105 102 103 104 102 100 98 95 92 90 89 88 88 87 87 90 89 85 83 84 88 95 100 100 101 110 119 129 137 134 129 129 138 140 134 124
161 160 170 171 164 161 164 165 166 164 158 155 154 159 164 168 171 172 171 167 165 167 167 162 159 160 162 159 157 157 155 152 145 148 152 150 151 150 150 152 156 153 145 140 129 122 122 121 115 108 107 107 104 102 99 97 95 92 91 89 89 88 87 89 95 94 90 88 88 93 96 96 94 93 101 110 119 128 131 131 128 135 141 140 133
160 166 169 169 167 161 163 165 165 165 160 157 154 159 162 166 171 172 171 168 167 170 171 166 166 169 166 163 162 160 158 156 150 151 153 152 152 151 151 152 155 152 144 139 128 124 126 122 116 111 110 108 104 102 99 97 96 93 91 89 89 86 84 88 92 90 88 86 85 85 85 88 88 89 93 99 110 121 126 127 124 130 136 136 134
166 172 170 172 171 162 164 165 165 166 162 160 156 157 161 165 168 170 172 170 169 173 173 172 174 173 166 164 166 165 163 161 156 155 155 154 153 152 153 152 153 150 143 137 128 125 126 122 117 115 111 107 105 102 100 97 95 94 92 89 88 86 86 89 89 88 87 85 87 87 85 85 85 85 87 91 100 110 116 116 117 126 131 130 131
171 174 172 175 174 167 167 166 167 168 164 163 158 159 161 163 167 170 170 170 173 174 174 175 175 174 172 170 164 165 169 169 164 161 158 156 156 156 158 157 155 151 144 138 130 126 127 124 120 116 109 107 106 104 102 99 98 96 94 91 88 86 89 93 91 91 94 90 88 85 85 86 85 84 84 84 89 96 102 105 111 120 124 124 125
173 173 173 177 176 171 170 170 167 167 167 165 162 162 161 163 169 172 171 170 173 176 177 177 175 174 180 181 166 163 175 179 172 167 163 161 161 160 164 163 162 160 150 141 132 130 131 127 123 117 110 109 107 106 105 102 101 99 97 95 92 90 89 92 94 95 97 96 94 89 85 87 88 87 85 85 85 91 97 98 101 108 114 117 118
173 174 174 172 173 173 174 175 169 169 169 165 165 165 164 165 171 173 171 169 170 172 172 174 177 173 179 186 176 169 180 187 180 173 167 168 169 165 169 172 170 172 163 146 137 136 136 131 127 121 114 111 109 108 106 105 103 100 98 96 94 93 90 92 94 92 91 92 94 92 87 85 86 86 86 88 87 89 94 95 95 98 106 112 117
175 175 174 168 173 177 176 178 172 173 175 172 171 168 168 167 170 171 168 167 166 164 160 162 166 169 178 186 184 178 183 189 186 179 173 174 176 171 173 180 179 178 175 157 145 143 141 136 132 127 119 113 110 109 107 106 102 100 98 95 94 90 87 92 93 90 92 95 93 88 85 82 82 83 84 87 87 88 90 93 98 99 102 109 118
179 176 174 171 175 177 177 181 179 181 181 179 177 173 170 167 168 168 167 168 166 164 160 160 158 164 172 179 185 183 184 187 187 184 179 179 182 178 177 184 190 186 183 173 159 153 150 145 140 134 125 117 113 111 109 105 102 101 97 96 94 88 88 92 92 92 93 92 87 82 82 80 79 79 82 85 87 92 93 95 102 105 104 105 112
181 177 176 179 180 179 181 184 184 185 182 182 183 178 171 168 168 167 170 169 169 172 169 167 162 164 167 172 179 179 180 180 183 187 184 186 188 185 182 185 197 198 190 186 178 167 162 157 147 138 131 123 116 114 113 109 106 102 99 100 95 89 92 90 87 87 85 80 77 75 74 72 71 72 74 75 76 79 83 92 103 113 118 113 111
176 177 181 185 183 182 187 186 184 186 183 185 188 184 178 174 173 172 172 170 175 179 179 178 171 170 170 170 173 175 175 170 178 188 187 193 194 192 188 187 199 207 200 194 191 183 173 167 155 141 136 129 118 113 114 113 110 106 105 104 95 91 94 93 91 90 89 85 77 72 68 64 63 64 66 65 65 60 56 67 84 103 119 126 128
173 177 182 185 183 185 189 187 185 185 184 188 189 189 186 180 181 183 179 178 185 186 188 192 180 178 177 172 177 182 172 165 178 186 192 202 202 201 197 192 199 208 208 202 199 196 184 175 165 150 142 136 123 111 110 114 115 114 111 102 95 97 96 93 96 99 102 92 79 71 66 61 56 55 58 61 59 54 39 35 42 51 96 134 147
175 178 180 184 185 188 190 188 189 187 186 192 193 194 191 187 190 193 193 193 194 195 200 203 192 191 190 181 186 186 174 174 187 189 192 203 205 206 203 198 201 207 212 208 204 202 191 184 174 163 153 143 137 124 119 123 121 117 110 104 102 102 97 96 101 106 107 96 81 71 65 58 52 45 42 48 55 56 42 23 19 18 32 128 167
178 180 181 185 187 191 192 190 194 193 192 196 199 197 191 191 196 197 200 201 201 203 207 206 200 199 195 190 192 188 181 182 190 189 185 195 202 206 206 204 203 205 211 210 208 202 192 191 184 174 164 155 159 156 150 142 128 121 114 112 110 102 100 108 110 103 103 100 82 67 62 53 46 39 26 28 39 44 39 28 19 15 13 357 251
180 181 185 187 187 191 192 193 195 197 197 198 200 197 194 197 200 200 200 201 203 205 205 205 206 202 195 196 196 191 192 190 191 190 185 193 201 202 204 206 206 206 209 209 209 202 189 193 192 181 174 170 174 173 165 151 134 128 122 117 112 108 110 115 109 100 101 100 83 67 59 49 38 27 12 1 360 4 2 13 21 4 1 2 350
183 179 186 190 190 191 191 194 197 201 202 201 200 199 201 203 205 205 200 201 205 206 206 207 211 209 203 203 201 195 198 197 195 195 193 196 200 201 203 211 215 211 210 210 211 206 192 194 193 185 185 181 181 180 173 158 144 138 131 124 121 120 120 116 109 106 109 104 89 77 61 46 29 14 357 345 344 346 352 13 34 29 21 28 39
186 180 186 195 195 196 195 196 199 203 204 204 204 203 207 207 211 216 207 208 214 214 215 216 218 220 217 214 208 200 199 200 199 200 198 198 200 204 205 213 217 211 211 210 212 210 199 198 196 189 189 184 184 181 176 169 156 148 141 134 131 129 131 128 119 114 116 113 99 88 72 45 12 358 346 345 347 354 13 37 34 21 20 23 32
185 182 189 196 197 198 198 197 198 200 202 205 205 203 209 212 215 220 217 220 225 223 223 226 226 227 226 223 216 205 200 200 199 199 200 200 200 202 206 213 210 204 211 210 210 212 205 202 199 193 193 186 186 185 181 181 166 153 149 141 137 138 146 142 126 122 128 128 114 102 93 42 347 343 343 351 9 39 39 20 2 355 9 30 45
184 186 191 193 195 200 200 198 198 200 203 205 204 204 212 218 220 221 225 229 232 231 231 232 230 227 225 225 224 214 204 199 199 199 199 199 197 199 203 212 212 207 212 211 209 210 207 204 200 197 199 190 188 192 190 188 175 163 159 154 150 146 149 147 136 139 141 135 134 136 142 226 334 340 349 14 52 45 4 360 10 6 10 47 67
184 187 192 190 193 201 202 201 204 204 205 207 209 213 217 222 223 221 226 233 237 238 236 233 231 230 227 227 228 223 210 202 204 206 202 199 195 198 202 207 212 210 213 213 209 208 206 206 203 200 200 194 192 195 193 188 181 174 170 169 164 154 156 158 151 153 145 136 141 141 154 189 360 354 359 25 44 10 359 26 46 24 17 61 57
184 186 192 194 193 200 203 205 212 211 209 212 215 218 221 226 226 223 226 233 237 237 238 236 232 235 234 232 232 229 218 210 211 212 209 201 194 197 202 204 205 205 209 212 209 208 207 207 206 205 204 200 199 197 194 192 185 178 179 178 168 163 170 166 156 160 156 149 152 135 125 63 11 7 12 18 19 21 41 57 42 33 41 42 11
186 189 193 194 193 196 199 205 216 218 216 218 219 223 226 227 228 229 231 233 236 239 244 243 237 241 242 240 241 236 230 224 215 215 212 200 193 197 199 201 204 202 204 207 208 209 210 209 207 207 208 206 205 202 198 200 193 183 187 186 177 180 179 167 161 170 169 159 156 142 142 171 348 358 22 24 20 23 42 63 41 51 42 354 4
185 193 191 190 196 199 199 202 209 217 222 224 226 227 227 230 232 234 238 239 244 249 249 245 243 248 249 248 248 242 237 229 217 215 214 202 195 197 195 196 202 203 204 207 205 206 211 211 207 208 212 207 206 205 202 203 200 194 197 194 190 195 179 164 171 180 177 170 161 142 146 165 120 359 360 14 17 15 5 356 11 36 159 25 61
183 187 186 190 201 207 207 205 204 212 224 229 230 230 229 235 237 237 244 246 250 253 249 249 253 254 251 250 251 249 243 232 220 217 214 207 201 201 200 197 201 203 203 206 205 204 208 208 204 207 212 207 205 207 206 205 202 201 207 205 202 200 180 175 188 194 189 171 161 150 151 161 153 166 260 8 15 9 360 360 45 103 133 97 95
184 183 183 186 195 215 226 220 211 214 226 233 234 236 235 239 242 240 242 245 251 252 250 252 253 252 250 249 252 256 252 238 224 218 214 213 209 212 217 209 207 206 202 204 203 204 207 205 202 205 207 204 204 205 205 206 200 204 213 213 210 198 185 193 199 207 204 165 166 164 156 165 172 175 152 131 121 10 10 34 77 91 105 103 108
182 181 182 181 182 221 249 238 217 219 230 236 236 236 237 245 249 240 239 244 248 246 247 249 248 248 250 253 256 260 260 245 230 224 222 224 220 223 227 218 215 213 208 205 200 203 208 205 203 205 203 200 205 204 205 210 206 211 220 219 212 195 184 196 202 207 196 171 177 173 170 180 173 165 145 134 159 41 46 72 84 83 88 90 90
177 174 186 191 178 222 261 272 236 225 228 236 241 242 244 255 256 243 241 241 240 241 245 247 245 245 249 257 260 260 260 251 240 235 231 231 230 231 229 224 226 222 217 211 203 201 205 207 206 204 200 200 207 207 212 219 219 220 223 220 212 192 184 203 208 206 193 181 187 181 185 191 166 164 171 143 144 133 96 94 89 80 77 82 82
168 175 193 194 168 213 271 290 274 230 224 234 242 251 254 255 256 249 243 241 244 248 249 247 247 247 247 254 260 258 256 253 248 243 237 236 235 234 232 233 235 229 225 217 207 200 199 207 204 198 199 202 205 208 215 222 224 223 218 212 206 192 193 211 210 203 195 191 195 192 190 191 179 179 175 151 149 151 140 124 104 102 92 82 85
174 179 195 196 180 206 252 276 273 240 234 241 240 252 256 254 258 255 245 244 249 251 249 248 249 249 246 249 257 259 254 252 253 251 248 245 239 234 232 234 237 236 231 220 209 201 197 204 201 197 203 203 205 209 211 215 216 211 203 201 199 193 200 212 208 201 199 199 201 200 195 193 194 191 181 169 167 161 157 150 148 169 145 91 79
202 194 186 196 217 234 262 275 273 264 251 260 266 262 258 261 269 265 252 247 248 250 254 254 250 250 247 248 259 261 254 253 256 257 256 252 245 239 235 236 238 238 232 221 213 207 198 202 204 204 208 207 207 208 209 209 207 199 191 192 196 197 204 210 206 201 201 204 208 206 203 199 195 196 197 187 177 171 171 163 169 203 165 101 82
237 241 216 232 269 275 278 267 270 275 252 253 273 266 261 270 276 271 260 252 250 252 254 251 246 247 246 247 253 252 252 256 259 260 259 257 254 249 246 244 240 236 232 225 222 219 213 213 214 209 207 207 207 209 214 212 204 202 195 186 190 195 203 211 209 206 206 208 211 213 211 205 196 196 205 199 188 184 182 180 182 200 173 119 84
238 249 250 256 270 272 266 260 277 286 266 258 261 252 257 266 267 267 264 258 255 250 244 241 240 241 242 241 239 241 248 256 260 261 260 260 259 257 254 249 240 233 231 230 228 225 222 220 218 212 204 204 208 211 217 212 198 204 201 190 193 195 201 213 214 213 214 212 214 218 218 215 206 200 206 202 199 198 188 186 187 193 188 156 127
241 251 259 261 263 270 271 272 286 286 269 280 280 268 267 261 259 262 262 261 258 247 238 237 240 241 241 237 234 239 247 253 258 262 263 263 262 259 255 248 238 231 230 231 229 225 224 217 211 213 208 206 209 214 218 211 197 201 201 197 200 199 203 215 217 219 221 217 218 226 223 217 211 204 208 211 206 202 193 192 198 203 205 193 163
253 257 263 266 263 271 277 277 287 283 263 260 256 258 260 254 258 258 256 254 247 241 237 234 238 245 245 241 241 246 247 250 255 260 264 264 260 255 250 241 233 230 228 227 226 223 222 215 210 214 214 211 211 214 218 212 204 204 201 197 195 201 210 212 214 220 223 219 218 224 219 210 205 204 208 214 208 200 196 195 200 204 208 207 176
238 247 256 267 267 267 270 274 287 295 283 263 243 243 239 235 236 240 249 252 241 237 236 231 233 243 247 245 247 249 249 250 251 256 262 263 258 251 245 238 233 229 224 220 221 219 217 215 213 212 211 211 210 210 213 210 208 208 206 204 199 208 214 202 201 206 205 212 218 216 210 203 206 210 210 207 194 189 194 189 185 190 191 183 177
207 230 256 276 286 283 280 282 288 284 282 281 261 249 236 228 222 221 233 243 242 242 241 236 235 239 247 252 254 253 252 252 250 251 257 259 255 251 244 236 232 229 221 216 216 215 215 214 212 209 206 205 204 205 209 207 204 206 211 214 212 210 204 192 196 195 187 199 213 214 208 203 207 208 201 187 181 190 193 180 169 177 182 180 191
209 208 226 241 272 285 287 294 297 284 293 306 290 272 248 232 226 219 220 227 235 240 244 246 244 243 249 256 260 261 256 254 252 250 252 253 251 250 244 233 229 224 216 215 214 212 212 210 209 209 202 197 199 201 205 204 203 206 212 215 215 211 203 196 203 205 197 194 195 202 201 194 196 196 181 168 186 198 188 173 170 179 190 192 201
240 246 255 267 278 280 273 286 299 309 329 342 329 300 268 248 239 232 231 233 233 230 233 240 244 247 251 254 260 265 261 255 252 251 252 251 248 247 241 233 227 218 211 213 213 209 207 206 208 206 195 192 197 200 200 203 204 206 212 215 211 211 208 200 201 210 218 201 188 188 186 178 183 195 183 176 187 191 179 182 186 187 196 202 206
274 292 303 307 313 325 327 326 332 332 334 336 330 310 278 256 247 247 249 250 248 242 238 238 240 241 245 253 261 266 265 260 253 251 253 252 247 243 238 233 227 217 212 212 210 208 206 205 205 202 197 195 198 202 202 202 203 206 214 215 203 203 204 196 199 205 209 208 193 186 185 179 177 184 188 185 186 184 187 196 196 193 199 204 207
345 353 348 342 348 354 355 357 351 341 323 310 304 291 270 254 248 250 253 255 258 258 252 247 246 243 243 252 262 267 269 265 257 252 253 251 247 241 235 231 229 221 216 211 208 209 207 205 204 204 206 202 201 208 207 203 208 213 215 209 195 197 197 193 197 197 194 200 195 185 187 182 172 176 190 186 177 186 200 199 195 199 194 186 195